STARLINK-3077, 49133

Orbit data source: Space-Track

STARLINK-3077, 49133 is a payload satellite owned by SpaceX/Seattle (US) in LEO that was launched on Tue, 14 Sep 2021 UTC via an FALCON 9 launch vehicle from the Air Force Western Test Range (AFWTR). Payload-class satellites include a variety of spacecraft equipped with specific instruments for various scientific and technological missions. These include communications satellites like Starlink; space stations such as the ISS; scientific satellites like the Hubble; Earth observation satellites from companies like Planet Labs, Umbra, and HawkEye 360; GPS; miniature CubeSats for education and research; and military/defense satellites.

Loading next visibility...
Identifier
49133, 2021-082D
Orbit
LEO
Country
Flag of USUS
Related business
Manufacturer
SpaceX/Seattle
Mission
Operational Commercial Communications
Bus & Motor
STARLINK, Unknown motor
Mass
297 kg wet, ~275 kg dry
Launch date (UTC)
2021-09-14 (4 years ago)
Launch vehicle
FALCON 9
Launch site
Air Force Western Test Range (AFWTR)
Object type
Payload
Rocket body
Debris
Shape & HBR
Box + 1 Pan, 10.1 m
Radar Cross Section
13.562 m², Large (>1 m²)

Expand to show TLE details & history
Last TLE update: 6 hours ago

TLE from 6 hours ago
0 STARLINK-3077
1 49133U 21082D   26071.99354322 -.00000485  00000-0 -32819-4 0  9992
2 49133  69.9983 286.1248 0002863 270.4277  89.6554 14.98332139246478
Epoch: 2026-03-12T23:50Z
TLE epoch observation values (Epoch: 2026-03-12T23:50:42.134Z)
Latitude
-0.00001°
Longitude
117.81378°
Altitude
574.462 km
Speed
7.574 km/s
True Right ascension
19h 04m 29s
True Declination
0° 00' 00"
Sunlit
Object was in daylight at epoch
Visualization orbit readout
Latitude
Unknown
Longitude
Unknown
Altitude
Unknown
Speed
Unknown
Apparent Right ascension
Unknown
Apparent Declination
Unknown
Sunlit
N/A
Visualization observer readout
Local Sidereal Time
10:06:28
Azimuth
Unknown
Elevation
Unknown
Doppler factor
Unknown
Orbital elements
Apogee altitude
571.987 km
Perigee altitude
568.008 km
Semi-major axis
6,948.135 km
Eccentricity
0.00029
Inclination
69.9983°
RAAN
286.1248°
Arg. of periapsis
270.4277°
True anomaly
89.68821°
Mean anomaly
89.6554°
Eccentric anomaly
89.6718°
Mean motion
3.74749 °/min
Orbital period
96.06 mins
BSTAR
-0.000032819
Loading maneuver chart data...
Computing Atmospheric mass density...

Documentation

Showing up to 5 results
|